Tracking 19192 objects as of 18-Jun-2018
HD Live streaming from Space Station
objects crossing your sky now

FENGYUN 1C DEB

Track FENGYUN 1C DEB now!
10-day predictions


NORAD ID: 40684
Int'l Code: 1999-025EWQ
Perigee: 838.4 km
Apogee: 896.4 km
Inclination: 98.9 °
Period: 102.1 minutes
Semi major axis: 7238 km
RCS: Unknown
Launch date: May 10, 1999
Source: People's Republic of China (PRC)
Launch site: Taiyaun Space Center, China (TSC)

Note: This is SATELLITE DEBRIS
aabbcc
Your satellite tracking list
Your tracking list is empty




NASA's NSSDC Master Catalog

Two Line Element Set (TLE):
1 40684U 99025EWQ 18144.41027967  .00000549  00000-0  33529-3 0  9994
2 40684  98.8904 206.8741 0040042 131.4988 228.9894 14.09736414225745
Source of the keplerian elements: AFSPC